#timestamp,LO_Frequency,Hit,StdDev 
1652680815.8,286047001.0,N
1652680835.6,286046998.1,N
1652680855.4,286047001.1,N
1652680875.3,286046998.5,N
1652680895.1,286046998.1,N
1652680915.8,286046998.3,N
1652680935.7,286046998.1,N
1652680955.5,286047001.2,N
1652680975.4,286047000.5,N
1652680995.2,286047001.0,N
1652681015.0,286046998.9,N
1652681015.9,286046998.9,N
1652681035.8,286046998.7,N
1652681055.6,286046999.0,N
1652681075.4,286047001.1,N
1652681095.3,286047011.9,Y
1652681115.1,286046999.3,P
1652681135.9,286046998.4,P
1652681155.7,286046998.5,N
1652681175.5,286046998.1,N
1652681195.4,286046998.7,N
1652681215.2,286046999.0,N
1652681235.0,286046998.7,N
1652681236.0,286046998.7,N
1652681255.8,286046998.7,N
1652681275.6,286046996.5,Y
1652681295.5,286046998.1,P
1652681315.3,286046998.2,P
1652681335.1,286046998.1,P
1652681355.9,286047001.2,Y
1652681375.7,286046999.8,P
1652681395.6,286047001.5,N
1652681415.4,286047002.0,N
1652681435.2,286047002.1,N
1652681455.1,286047002.6,N
1652681456.0,286047002.6,N
1652681475.8,286047002.5,N
1652681495.6,286047002.0,N
1652681515.5,286047002.5,N
1652681535.3,286047002.0,N
1652681555.2,286046999.9,N
1652681575.9,286047002.7,N
1652681595.7,286047002.1,N
1652681615.6,286047001.9,N
1652681635.4,286047002.0,N
1652681655.2,286047001.4,N
1652681675.1,286047001.3,N
1652681676.0,286047001.3,N
1652681695.8,286047004.4,Y
1652681715.7,286047000.2,P
1652681735.5,286047002.4,P
1652681755.3,286047002.6,N
1652681775.2,286047002.4,N
1652681795.0,286047002.5,N
1652681795.9,286047002.5,N
1652681815.8,286047002.7,Y
1652681835.6,286046998.4,P
1652681855.4,286046998.2,N
1652681875.3,286046996.5,N
1652681895.1,286046998.9,N
1652681915.8,286046998.9,N
1652681935.7,286046998.5,N
1652681955.5,286046998.5,N
1652681975.3,286046998.6,N
1652681995.2,286046998.9,N
1652682015.0,286046999.2,N
1652682015.9,286046999.2,N
1652682035.8,286046999.4,N
1652682055.6,286046999.4,N
1652682075.4,286046999.4,N
1652682095.3,286046998.9,N
1652682115.1,286046999.2,N
1652682135.9,286046998.3,N
1652682155.7,286046998.7,N
1652682175.5,286046998.7,N
1652682195.4,286046999.0,N
1652682215.2,286046998.7,N
1652682235.0,286046999.0,N
1652682235.9,286046999.0,N
1652682255.8,286046998.7,N
1652682275.6,286046998.8,N
1652682295.5,286046998.4,N
1652682315.3,286046998.6,N
1652682335.1,286046998.9,N
1652682355.9,286047001.1,N
1652682375.7,286046998.5,N
1652682395.5,286046998.1,N
1652682415.4,286046999.1,N
1652682435.2,286046999.3,N
1652682485.1,286046998.8,E
1652682495.0,286047001.1,N
1652682495.9,286047001.1,P
1652682515.7,286047000.7,P
1652682535.6,286047000.5,N
1652682555.4,286047002.3,Y
1652682575.3,286047001.1,P
1652682595.1,286046998.4,P
1652682615.8,286046998.4,N
1652682635.7,286046998.6,N
1652682655.5,286047001.2,N
1652682675.3,286047000.8,N
1652682695.2,286047000.1,N
1652682715.0,286047000.7,N
1652682715.9,286047000.7,N
1652682735.8,286047002.8,N
1652682755.6,286047000.6,N
1652682775.4,286047002.7,N
1652682795.3,286047001.1,N
1652682815.1,286047000.6,N
1652682835.9,286047000.9,N
1652682855.7,286047001.1,N
1652682875.5,286047000.5,N
1652682895.4,286047002.7,N
1652682915.2,286047000.1,N
1652682935.0,286047002.4,N
1652682935.9,286047002.4,N
1652682955.8,286047001.6,N
1652682975.6,286047002.7,N
1652682995.5,286047002.7,N
1652683015.3,286047001.9,N
1652683035.1,286047004.4,Y
1652683055.9,286047002.1,P
1652683075.7,286047001.6,P
1652683095.5,286047002.2,P
1652683115.4,286047002.8,Y
1652683135.2,286047000.9,P
1652683155.1,286047000.6,N
1652683156.0,286047000.6,N
1652683175.8,286047001.2,N
1652683195.6,286046999.1,N
1652683215.5,286046999.2,N
1652683235.3,286046997.0,Y
1652683255.2,286046995.9,P
1652683275.9,286046993.6,N
1652683295.7,286046995.8,N
1652683315.6,286046996.0,N
1652683335.4,286046994.1,N
1652683355.2,286046994.5,N
1652683375.1,286046993.3,Y
1652683376.0,286046993.3,P
1652683395.8,286046998.6,N
1652683415.7,286046999.3,N
1652683435.5,286046999.4,N
1652683455.3,286046999.3,N
1652683475.2,286046996.8,N
1652683495.0,286046997.1,N
1652683495.9,286046997.1,N
1652683515.7,286046996.8,N
1652683535.6,286046996.9,N
1652683555.4,286046997.4,N
1652683575.3,286046996.9,N
1652683595.1,286046996.8,N
1652683596.0,286046996.8,N
1652683615.8,286046996.8,N
1652683635.7,286046997.6,N
1652683655.5,286046997.7,N
1652683675.3,286046995.5,Y
1652683695.2,286046996.9,P
1652683715.0,286046998.7,P
1652683715.9,286046998.7,N
1652683735.8,286047001.2,N
1652683755.6,286046998.3,N
1652683775.4,286046998.6,N
1652683795.3,286046998.7,N
1652683815.1,286046999.4,N
1652683835.9,286046998.6,N
1652683855.7,286046998.8,N
1652683875.5,286046999.6,N
1652683895.4,286046997.8,N
1652683915.2,286046997.9,N
1652683935.0,286046996.6,Y
1652683935.9,286046996.6,P
1652683955.8,286047000.6,N
1652683975.6,286047000.9,N
1652683995.5,286046998.5,N
1652684015.3,286046998.2,N
1652684035.1,286047000.9,N
1652684055.9,286047001.1,N
1652684075.7,286046998.5,N
1652684095.5,286046998.4,N
1652684115.4,286046998.4,N
1652684135.2,286046998.1,N
1652684155.1,286046999.6,N
1652684156.0,286046999.6,N
1652684175.8,286046996.9,N
1652684195.6,286046999.4,N
1652684215.5,286046999.2,N
1652684235.3,286046998.7,N
1652684255.1,286047000.6,N
1652684275.9,286047000.8,N
1652684295.7,286046998.2,N
1652684315.6,286046997.0,N
1652684335.4,286046999.2,N
1652684355.2,286046998.5,N
1652684375.1,286046998.6,N
1652684376.0,286046998.6,N
1652684395.8,286046998.8,N
